Location: Bois de la Silve
(44.4667°N, 6.7833°E)
Time: 03:24:42
(UTC+00:00)

Cosmos 1733 Rocket - Pass Details

Date: 14 July 2020
Orbit: 604 x 628 km, 82.5° (Epoch: 06 August)

Event Time Altitude Azimuth Distance (km) Brightness Sun altitude
Exits shadow 01:29:33 23° 146° (SSE) 1,303 4.4 -19.2°
Maximum altitude 01:31:43 39° 92° (E) 906 4.1 -19.0°
Drops below altitude 10° 01:35:46 10° 23° (NNE) 1,961 6.9 -18.7°
Sets 01:38:05 0° 16° (NNE) 2,870 8.0 -18.5°
